GFSNW_prec_cloud_003.txt.gz
Cloud_Cover
5 5 5 5 36 86 22 75 61 17 44 5 5 4 5 9 26 5 7 100 100 100 56 6 5 56 40 0 0 0 0 0 0 0 0 0 0 0 0 3 0 4 25 98
5 5 5 5 5 7 64 7 5 2 2 5 5 5 27 76 13 20 43 82 100 100 100 5 5 5 95 3 0 0 0 0 0 0 0 0 0 0 0 0 3 5 5 1
5 5 5 42 5 8 54 47 3 6 21 4 20 61 98 100 100 96 27 100 100 100 99 9 12 5 90 5 8 5 0 0 0 0 0 0 0 0 0 0 0 1 3 56
5 5 22 90 43 27 89 76 19 90 18 100 100 89 53 100 100 100 100 100 100 100 100 87 5 50 100 33 28 4 3 1 0 0 2 4 1 0 0 0 0 0 2 10
47 92 38 15 59 87 98 85 100 95 76 72 28 100 100 100 100 100 100 100 100 100 100 100 100 100 100 100 20 5 5 5 4 0 0 1 5 5 0 0 0 0 0 5
84 65 94 94 99 82 100 100 51 99 32 95 92 5 100 100 100 100 100 100 100 100 100 100 93 83 83 100 81 14 19 51 18 5 6 88 52 0 0 3 2 0 0 0
10 34 57 97 100 9 94 100 100 98 34 100 100 100 95 100 100 100 100 100 100 100 100 52 34 99 100 100 100 100 94 41 84 64 100 92 0 0 32 12 5 10 5 0
5 93 100 99 100 100 81 78 100 100 58 100 100 97 100 100 100 14 100 100 100 100 100 100 100 100 100 100 100 100 100 100 100 77 77 12 1 100 2 9 3 4 5 4
100 100 94 93 95 100 100 100 95 100 100 38 99 100 100 100 100 100 100 100 100 100 100 100 100 100 100 100 100 82 100 100 52 100 81 49 14 100 2 2 0 0 36 89
100 100 100 94 95 98 60 100 100 100 100 100 87 98 100 100 100 100 93 65 100 100 100 100 100 100 98 100 100 94 100 100 18 22 52 89 78 0 4 4 37 60 0 0
100 100 100 100 94 91 58 84 97 95 100 100 100 100 75 65 98 100 100 100 100 100 100 100 100 100 100 100 100 100 100 100 76 62 97 58 25 34 26 18 5 2 1 0
100 100 100 100 100 74 38 94 63 100 100 96 100 97 86 100 100 100 100 100 100 100 100 100 100 100 100 100 100 100 100 100 100 92 96 25 13 51 3 0 0 2 2 4
98 95 81 92 92 99 100 100 100 100 100 100 100 100 49 100 100 100 100 100 100 100 100 100 100 100 100 100 100 100 100 100 100 100 8 96 100 13 0 0 1 48 4 32
31 5 72 70 100 99 99 100 100 100 100 100 100 96 85 100 100 100 100 100 100 99 100 100 100 100 100 100 100 100 100 100 100 42 99 100 34 5 3 0 77 7 60 65
76 83 31 97 37 74 100 100 100 100 100 100 100 100 100 100 100 55 100 93 100 100 100 100 100 100 100 100 100 100 100 100 99 95 99 100 6 14 4 15 100 97 58 100
8 6 32 70 100 100 100 100 100 100 100 100 100 100 100 91 81 11 16 100 100 99 100 100 100 100 100 100 100 100 100 100 100 100 100 91 35 5 15 94 100 98 42 12
91 89 85 92 85 99 100 100 97 96 100 97 80 64 42 97 92 54 100 100 100 100 100 100 100 100 100 100 100 100 100 100 100 98 87 30 7 51 99 100 100 100 100 100
99 44 58 96 100 100 89 92 86 97 100 100 100 96 83 100 100 100 100 100 100 100 100 100 100 100 100 100 100 100 100 100 92 100 100 73 74 96 99 100 100 100 100 100
5 41 82 88 53 99 100 100 100 100 100 100 100 100 100 100 100 100 100 100 100 100 100 100 100 100 100 100 100 100 100 100 98 100 86 100 100 100 100 100 100 100 100 100
100 100 100 100 100 100 100 100 100 100 100 100 100 100 100 92 100 100 100 100 100 100 100 100 100 100 100 100 100 100 100 100 100 100 82 100 100 100 100 100 100 100 100 100
100 100 100 100 100 100 100 100 100 100 100 100 100 100 100 100 100 100 100 100 100 100 100 100 100 100 100 100 100 100 100 100 100 100 100 100 100 100 100 100 100 100 100 100
66 96 100 100 100 100 100 100 100 100 100 100 100 100 100 100 100 100 100 100 100 100 100 100 100 100 100 100 100 100 100 100 100 100 100 100 100 100 100 100 100 100 100 100
94 99 100 98 95 100 100 100 100 100 100 100 100 100 100 100 100 100 100 100 100 100 100 100 100 100 100 100 100 100 100 100 100 100 100 100 100 100 100 100 100 100 100 100
100 99 100 100 100 93 100 100 100 100 100 100 100 100 100 100 100 100 100 100 100 100 100 100 100 100 100 100 100 100 100 100 100 100 100 100 100 100 100 100 100 100 100 100
100 94 100 93 100 100 100 100 100 100 100 100 100 100 100 100 100 100 100 100 100 100 100 100 100 100 100 100 100 100 100 100 100 100 100 100 100 100 100 100 100 100 100 100
100 100 100 94 88 94 100 100 100 100 100 100 100 100 100 100 100 100 100 100 100 100 100 100 100 100 100 100 100 100 100 100 100 100 100 100 100 100 100 100 100 100 100 100
100 100 100 100 100 91 63 23 92 100 100 100 100 100 100 100 100 100 100 100 100 100 100 100 100 100 100 100 100 100 100 100 100 100 100 100 100 100 100 100 100 100 100 100

GFSNW_prec_cloud_006.txt.gz
Cloud_Cover
0 0 0 5 5 4 2 5 4 4 60 18 34 4 0 0 2 4 5 1 5 5 5 0 0 0 0 2 0 0 5 0 0 0 0 0 0 0 0 0 0 0 0 0
5 5 5 5 5 5 47 15 4 0 4 6 2 5 5 11 10 23 6 17 0 5 5 0 0 0 0 5 3 6 11 5 0 0 0 0 0 0 0 0 0 0 0 0
5 5 5 29 7 33 54 68 29 0 9 16 39 24 10 28 31 90 100 100 100 35 5 10 5 0 2 44 5 2 89 5 0 0 0 2 0 0 0 0 0 0 0 1
5 5 5 44 26 23 59 85 45 88 70 2 100 100 46 73 88 100 100 100 100 100 77 15 14 30 3 5 4 0 5 5 0 0 0 4 0 0 0 0 0 0 0 0
10 5 46 29 6 5 88 99 76 31 71 6 35 100 100 64 47 92 100 100 100 100 25 73 72 79 99 12 4 5 5 2 5 0 0 0 74 5 2 0 0 0 0 0
5 5 19 99 98 78 62 94 46 97 16 76 80 2 74 100 100 100 100 100 100 100 100 96 6 38 4 0 11 36 8 0 1 0 0 27 85 0 52 16 0 0 0 0
5 6 91 76 100 61 80 84 100 100 100 95 97 100 7 54 99 87 98 47 100 100 100 100 100 100 5 3 5 19 88 5 39 4 56 72 2 3 10 4 12 0 0 0
5 100 100 87 100 99 100 94 100 100 100 81 85 84 98 78 28 53 58 80 95 100 100 100 100 100 100 100 96 100 100 99 100 98 90 24 5 7 96 96 2 0 4 1
26 100 100 100 100 100 100 98 100 100 100 91 80 99 80 86 100 20 68 100 100 100 100 100 100 100 100 100 100 100 100 100 100 100 79 38 74 100 49 93 0 0 1 0
6 40 62 100 100 100 100 100 100 100 100 100 26 20 98 45 82 71 76 98 48 85 100 100 100 100 100 100 100 100 100 100 100 100 100 100 100 100 74 82 2 4 0 0
33 39 53 100 97 100 100 59 100 99 100 100 39 5 75 90 100 100 100 98 93 83 100 100 100 100 100 100 100 100 100 100 100 100 100 100 100 100 100 100 98 76 1 0
5 5 49 54 94 34 9 78 67 99 100 86 17 14 45 100 100 100 100 100 100 100 100 100 100 100 100 100 100 100 100 100 100 100 100 100 100 95 100 100 25 5 0 0
9 5 5 5 5 5 21 97 91 76 88 20 22 100 100 100 100 100 100 100 100 100 100 100 100 100 100 100 100 100 100 100 100 100 100 100 97 62 12 5 3 3 0 0
5 5 5 5 6 37 46 99 99 100 97 100 100 100 100 100 100 100 100 100 34 98 100 100 100 100 100 100 100 100 100 100 100 100 100 82 97 78 14 5 68 2 0 0
5 5 5 5 68 100 94 97 100 100 100 100 100 100 89 88 100 100 58 78 97 100 100 100 100 100 100 100 100 100 100 100 100 100 100 100 100 10 5 91 62 3 0 0
5 5 5 5 5 43 100 100 97 100 100 100 100 100 100 100 100 100 100 100 100 100 100 100 100 100 100 100 100 100 100 100 100 100 100 100 100 100 100 18 5 2 1 0
5 5 5 5 19 54 96 71 87 59 75 100 69 17 94 100 100 99 100 100 100 99 100 100 100 100 100 100 100 100 100 100 100 100 100 100 100 100 100 8 2 5 3 4
9 73 100 100 100 99 72 89 90 100 100 100 100 96 100 100 100 100 100 100 100 100 100 100 100 100 100 100 100 100 100 100 100 100 100 100 100 100 100 81 30 86 22 96
100 100 100 100 100 100 100 81 100 100 100 100 100 100 100 100 100 100 100 100 100 100 100 100 100 100 100 100 100 100 100 100 100 100 100 100 100 100 88 41 68 30 11 100
100 85 96 100 100 100 100 100 100 100 100 100 100 100 100 100 100 100 100 100 100 100 100 100 100 100 100 100 100 100 100 100 100 100 100 100 100 70 100 100 100 96 100 96
96 100 100 100 100 100 100 100 100 100 100 100 100 100 100 100 100 100 100 100 100 100 100 100 100 100 100 100 100 100 100 100 100 100 100 100 100 100 100 100 100 100 100 100
100 100 100 100 100 100 100 100 100 100 100 100 100 100 100 100 100 100 100 100 100 100 100 100 100 100 100 100 100 100 100 100 100 100 100 100 100 100 100 98 100 100 100 100
100 100 100 100 100 100 100 100 100 100 100 100 100 100 100 100 100 100 100 100 100 100 100 100 100 100 100 100 100 100 100 100 100 100 100 100 100 98 72 100 100 100 100 100
86 100 97 100 100 100 100 100 100 100 100 100 100 100 100 100 100 100 100 100 100 100 100 100 100 100 100 100 100 100 100 100 100 100 100 100 99 100 100 99 100 100 100 100
50 25 93 67 94 100 100 100 100 100 100 100 100 100 100 100 100 100 100 100 100 100 100 100 100 100 100 100 100 100 100 100 100 100 100 100 100 99 100 100 100 100 100 100
55 28 99 96 86 61 31 87 100 100 100 100 100 100 100 100 100 100 100 100 100 100 100 100 100 100 100 100 100 100 100 100 100 100 100 100 100 100 100 100 100 100 100 100
100 100 100 100 100 89 59 99 81 100 100 100 100 100 100 100 100 100 100 100 100 100 100 100 100 100 98 100 100 100 100 100 100 100 100 100 100 100 100 100 100 100 100 100

GFSNW_prec_cloud_009.txt.gz
Cloud_Cover
5 19 5 5 5 0 0 5 8 0 0 0 5 1 0 0 0 0 0 0 0 0 0 0 0 0 5 2 0 0 0 0 0 0 0 0 0 0 0 0 0 0 0 1
5 3 4 5 5 5 6 28 4 0 0 4 0 29 4 1 2 64 5 7 42 5 0 0 0 0 0 0 22 3 0 0 0 5 80 40 1 0 0 0 0 0 0 1
1 0 0 5 5 7 5 24 24 0 0 86 100 12 1 1 15 20 55 36 87 5 3 4 0 0 0 0 0 0 3 0 2 2 5 2 4 17 0 0 0 0 0 0
0 0 0 5 8 32 31 36 39 83 31 6 38 100 77 36 4 3 29 91 86 99 45 5 1 2 0 0 0 5 43 0 0 2 5 2 4 2 2 0 0 0 0 0
0 2 5 5 81 100 95 100 90 6 6 5 32 95 100 100 60 73 3 73 64 99 99 85 100 6 0 0 0 5 21 0 0 0 13 14 0 0 0 5 2 0 0 0
3 5 5 5 100 86 100 100 97 100 100 5 22 5 100 97 96 100 83 97 75 97 100 100 100 89 86 5 22 86 42 0 2 0 5 6 0 0 1 0 0 0 0 0
1 0 5 5 56 92 90 100 100 100 100 94 20 5 5 63 97 82 100 90 80 2 100 100 100 100 100 96 100 100 67 8 0 0 5 64 8 5 0 0 1 2 0 0
5 0 5 8 81 100 100 100 100 100 100 100 80 62 86 18 3 5 6 100 78 40 99 62 100 100 100 100 100 100 100 100 11 2 0 0 0 5 6 88 4 100 1 3
1 3 5 6 32 100 55 73 100 100 100 100 5 9 9 5 8 4 14 6 100 100 96 4 98 100 100 100 100 100 100 100 100 30 4 0 4 20 100 7 5 5 2 5
4 5 5 5 5 68 99 100 100 100 100 100 11 42 44 5 11 68 95 61 28 100 100 17 18 100 100 88 100 100 100 100 100 25 4 9 4 91 100 100 5 2 4 5
11 10 2 5 5 5 49 41 98 97 100 99 26 3 47 7 12 83 80 33 51 100 89 12 31 100 88 100 100 100 100 100 100 100 91 100 100 100 100 55 2 3 5 25
5 5 5 5 5 5 5 5 20 81 100 97 4 4 0 0 11 66 100 100 100 100 100 100 79 100 89 38 100 100 100 100 100 100 99 97 100 100 100 37 5 7 83 89
5 5 5 5 5 7 10 9 9 47 52 62 17 4 4 12 100 95 100 100 100 100 100 100 100 100 81 77 86 100 100 100 100 100 100 62 84 78 6 98 39 100 100 100
5 5 5 5 5 5 19 46 98 96 90 100 99 99 21 14 94 100 100 100 100 100 100 100 100 100 100 100 100 100 100 100 100 100 100 100 100 100 100 75 62 100 100 100
5 61 45 5 5 6 13 59 99 100 100 97 81 11 36 8 66 100 100 100 100 100 81 100 98 100 100 100 100 100 100 100 100 100 100 100 98 100 100 100 99 100 100 100
100 61 3 5 35 100 100 99 58 100 100 100 100 100 97 84 61 86 100 96 100 100 100 100 100 100 100 100 100 100 100 100 100 100 100 100 100 100 42 95 100 100 100 100
100 100 100 100 100 100 100 100 100 100 100 96 96 99 100 100 100 40 42 28 100 100 100 100 100 100 100 100 100 100 100 100 100 100 100 100 100 100 100 100 100 100 98 5
100 100 100 100 100 100 99 89 100 100 100 100 100 100 100 100 100 100 100 100 100 100 100 100 100 100 100 100 100 100 100 100 100 100 100 100 100 100 100 100 100 99 35 51
100 100 100 100 100 100 100 100 100 100 100 100 100 100 100 100 100 100 100 100 100 100 100 100 100 100 100 100 100 100 100 100 100 100 100 100 100 100 100 100 100 88 100 100
100 100 100 100 100 100 100 100 100 100 100 100 100 100 100 100 100 100 100 100 100 100 100 100 100 100 100 100 100 100 100 100 100 100 100 100 100 100 100 100 100 100 100 99
100 100 100 100 100 64 100 100 100 100 100 100 100 100 100 100 100 100 100 100 100 100 100 100 100 100 100 100 100 100 100 100 100 100 100 100 100 100 100 100 100 100 44 24
86 85 100 100 100 100 100 100 100 100 100 100 100 100 100 100 100 100 100 100 100 100 100 100 100 100 100 100 100 100 100 100 100 100 100 100 100 100 100 100 100 100 58 93
77 76 100 100 100 100 100 100 100 100 100 100 100 100 100 100 100 100 100 100 100 100 100 100 100 100 100 100 100 100 100 100 100 100 100 100 100 100 100 100 100 100 99 80
45 46 86 100 100 100 100 100 100 100 100 100 100 100 100 100 100 100 100 100 100 100 100 100 100 100 100 100 100 100 100 100 100 100 100 100 100 100 100 99 100 100 100 100
11 36 98 100 100 100 100 100 100 100 100 100 100 100 100 100 100 100 100 100 100 100 100 100 100 100 100 100 100 100 100 100 100 100 100 100 100 100 100 100 96 100 100 100
9 83 91 40 73 100 100 100 100 100 100 100 100 100 100 100 100 100 100 100 100 100 100 100 100 100 100 100 100 100 100 100 100 100 100 100 100 100 100 100 100 100 100 99
67 43 47 100 100 26 97 100 100 100 100 100 100 100 100 100 100 100 100 100 100 100 100 100 100 100 100 100 100 100 100 100 100 100 100 100 100 100 100 100 100 100 100 100

GFSNW_prec_cloud_015.txt.gz
Cloud_Cover
0 0 0 5 3 0 5 11 6 0 0 0 1 80 56 5 1 0 0 0 0 0 0 0 0 0 0 0 0 0 0 4 4 0 0 0 0 0 0 0 0 0 0 0
0 0 0 5 5 5 16 59 64 0 0 20 52 92 100 99 96 3 2 1 0 0 0 0 0 0 0 0 0 0 0 0 5 0 0 0 1 0 3 7 0 4 0 0
3 1 2 5 1 5 5 62 62 1 52 46 93 31 84 100 97 47 36 30 5 3 1 1 0 0 0 0 0 0 0 0 5 4 0 0 3 5 4 2 5 34 40 3
4 0 2 2 3 5 5 18 9 72 46 90 83 47 53 93 100 100 98 100 94 6 5 1 5 0 0 0 0 0 0 0 2 5 0 7 6 5 5 5 95 14 100 29
4 5 5 5 2 5 56 89 53 79 94 100 98 74 5 100 100 99 100 100 86 84 14 5 5 4 5 0 0 0 0 0 0 5 8 2 4 5 84 100 100 53 100 10
2 3 0 5 5 6 27 88 41 100 100 100 78 100 32 13 100 100 95 100 27 100 21 4 4 0 5 3 4 1 0 0 0 0 0 1 0 82 98 58 53 100 100 92
2 5 3 4 55 31 75 73 100 100 91 100 100 99 18 5 37 95 100 100 98 5 5 5 1 0 0 5 46 61 5 0 0 0 0 0 81 17 0 0 1 5 96 100
0 0 5 5 5 8 26 8 85 100 100 100 96 66 41 20 7 5 10 99 97 65 5 2 0 0 0 0 3 100 92 97 5 0 0 0 0 0 0 0 2 0 9 66
0 5 5 4 5 6 5 13 17 94 100 98 90 34 50 95 81 5 35 4 1 4 5 0 5 5 2 0 0 75 100 100 98 15 1 0 0 0 0 0 0 4 3 4
4 5 28 16 5 5 5 5 6 93 100 88 89 91 49 100 96 64 30 4 3 5 58 63 1 5 4 0 0 0 98 100 100 16 56 1 0 0 0 0 0 1 5 8
81 97 29 93 100 100 97 78 24 35 76 25 66 100 99 82 80 100 25 7 47 8 99 99 9 14 5 2 0 0 73 95 100 64 52 47 0 5 81 49 13 0 3 5
100 100 100 89 86 100 100 100 100 100 100 57 6 5 5 5 9 98 100 37 12 5 17 77 100 99 96 5 4 0 5 63 90 81 63 5 56 69 94 92 15 18 0 0
100 100 100 100 100 100 100 100 100 100 100 95 100 83 78 5 8 64 100 100 99 98 100 100 100 100 100 54 3 4 5 5 5 100 100 8 100 57 99 76 50 16 4 0
100 100 100 100 100 100 100 100 98 99 95 100 58 13 4 100 99 93 88 98 100 100 100 100 100 100 100 100 78 80 30 15 31 34 100 100 100 83 84 32 10 0 0 42
100 100 100 100 100 100 100 100 100 100 100 100 75 98 100 100 96 100 95 100 100 100 100 100 100 100 100 100 100 100 62 88 61 14 99 100 100 98 20 53 10 10 4 4
100 100 100 100 100 100 100 100 100 100 100 100 100 26 35 64 86 94 100 81 100 99 66 94 100 100 100 100 100 100 100 100 100 91 8 100 100 100 100 100 96 52 65 10
100 100 100 100 100 100 100 100 100 100 100 100 100 100 100 100 100 100 85 100 100 92 74 28 82 84 100 100 100 100 100 100 100 100 100 100 100 100 100 100 57 28 72 46
100 100 100 100 100 100 100 100 100 100 100 100 100 100 100 100 100 100 100 100 100 100 100 100 96 100 100 100 97 100 100 100 100 100 100 100 100 100 100 100 100 98 74 100
100 100 100 100 100 100 100 100 100 100 100 100 100 100 100 100 100 100 100 100 100 100 100 100 100 100 100 100 100 100 100 100 100 100 100 100 100 100 100 100 100 100 100 82
100 100 100 100 100 100 100 100 100 100 100 100 100 100 100 100 100 100 100 100 100 100 100 100 100 100 100 100 100 100 100 100 100 100 100 100 100 100 100 100 100 100 100 100
84 100 93 100 100 100 100 100 100 100 100 100 100 100 100 100 100 100 100 100 100 100 100 100 100 100 100 100 100 100 100 100 100 97 100 100 100 100 100 100 100 100 100 100
100 99 100 100 92 100 100 100 100 100 100 100 100 100 100 100 100 100 100 100 100 100 100 100 100 100 100 100 100 100 100 100 100 100 100 100 100 100 100 100 100 100 100 100
100 98 100 100 100 100 100 100 100 100 100 100 100 100 100 100 100 100 100 100 100 100 100 100 100 100 100 100 100 100 100 100 100 100 100 100 100 100 100 100 100 100 100 100
100 96 100 73 100 100 100 100 100 100 100 100 100 100 88 100 100 100 100 100 100 100 100 100 100 100 100 100 100 100 100 100 100 100 100 100 100 100 100 100 100 100 100 100
100 100 100 99 99 96 100 100 100 100 99 100 100 90 100 100 100 100 100 100 100 100 100 100 100 100 100 100 100 100 100 100 100 100 100 100 100 100 100 100 100 100 100 100
100 100 100 67 100 100 100 100 100 100 100 100 100 100 69 100 100 100 100 100 100 100 100 100 100 100 100 100 100 100 100 100 100 100 100 100 100 100 100 100 100 100 100 100
100 100 100 100 100 100 100 100 100 100 100 100 100 100 100 98 100 100 100 100 100 100 100 100 100 100 100 100 100 100 100 100 100 100 100 100 100 100 100 100 100 100 100 100

GFSNW_prec_cloud_021.txt.gz
Cloud_Cover
0 0 0 0 0 0 10 68 0 0 0 0 0 3 5 0 2 4 1 0 0 0 0 0 0 0 0 0 0 0 0 0 0 0 0 0 0 0 0 0 0 0 0 0
0 1 0 0 0 0 66 100 18 0 2 33 42 16 4 3 58 38 19 4 4 0 0 0 0 0 0 0 0 0 0 0 0 0 0 0 0 0 0 0 0 0 0 0
0 1 0 0 0 0 0 35 4 3 2 5 96 91 5 24 5 97 100 96 33 4 5 0 0 0 0 0 0 0 0 0 0 0 0 0 0 0 0 0 0 1 2 4
0 4 2 0 5 5 4 5 12 57 12 7 8 29 5 69 72 41 81 100 100 90 10 4 0 2 0 0 0 0 0 0 0 0 0 0 0 0 0 0 1 10 99 0
1 5 5 100 32 26 7 18 100 100 100 79 45 7 66 84 78 79 69 100 100 100 100 97 42 3 5 1 0 0 0 0 0 0 0 0 0 0 0 0 0 70 97 0
9 24 41 100 100 95 70 88 49 100 100 23 97 65 79 81 99 28 66 100 100 100 100 100 90 7 4 2 4 1 0 0 0 0 0 0 0 0 0 0 3 19 95 33
100 85 100 99 85 98 100 94 98 99 55 84 100 100 91 100 100 92 23 11 98 100 90 100 99 82 3 0 3 23 1 1 0 0 0 0 0 0 0 0 5 6 100 93
20 100 100 100 100 100 100 100 94 100 99 93 64 100 100 100 100 98 46 10 60 81 100 79 15 19 3 0 0 9 89 6 0 0 0 0 0 0 0 0 5 41 100 100
99 96 100 100 100 100 100 100 87 99 100 83 44 90 100 100 100 100 80 49 28 100 68 65 5 5 0 0 0 0 16 99 19 0 0 0 0 0 0 0 4 69 100 100
57 100 99 100 100 100 100 100 100 97 100 96 78 99 100 85 99 100 99 78 34 49 100 47 80 31 3 1 0 0 0 6 4 5 1 0 0 0 0 0 5 5 48 100
6 30 100 100 100 100 100 100 100 100 100 98 100 100 100 96 100 91 97 51 57 99 68 99 97 85 17 4 0 0 2 6 16 4 4 0 0 0 0 2 4 11 9 58
72 98 100 100 100 100 100 100 100 100 100 100 100 100 100 100 98 100 100 66 41 96 90 73 100 80 44 11 44 23 4 2 63 1 0 0 0 0 0 0 0 0 5 5
12 100 100 100 100 100 100 100 100 100 100 100 100 99 100 94 10 20 99 100 95 27 14 86 98 75 71 69 86 69 15 5 10 1 3 2 0 0 0 0 0 0 63 67
77 100 100 100 100 100 100 100 100 100 100 100 100 93 88 92 100 93 100 100 100 100 100 100 100 100 50 90 39 55 38 35 5 5 1 0 0 0 0 0 0 8 33 86
87 100 100 100 100 100 100 100 100 100 100 100 100 100 100 92 67 100 100 100 100 100 100 100 100 100 100 84 98 100 38 8 16 5 4 16 0 0 2 0 0 31 39 100
99 100 100 100 100 100 100 100 100 100 100 100 100 100 100 100 100 100 100 100 100 100 100 100 100 100 100 100 85 100 100 26 5 3 5 0 28 0 2 0 45 19 98 100
100 100 100 100 76 100 100 100 100 100 100 100 100 100 100 100 100 100 100 100 100 100 100 100 100 100 100 100 98 100 100 100 100 38 6 4 2 7 20 53 74 84 100 100
100 100 100 99 99 100 100 100 100 100 100 100 100 100 100 100 100 100 100 100 100 100 100 100 100 100 100 100 99 100 100 100 100 100 38 5 28 20 83 100 100 94 100 88
100 60 70 82 93 100 100 100 100 100 100 100 100 100 100 100 100 100 100 100 100 100 100 100 100 100 100 100 100 100 100 100 100 100 96 74 87 63 100 100 100 100 100 100
4 99 18 91 99 100 100 100 100 100 100 100 100 100 100 100 100 100 100 100 100 100 100 100 100 100 100 100 100 100 100 100 100 100 100 100 100 100 100 100 100 100 100 100
78 100 18 100 99 100 100 100 100 100 100 100 100 100 100 100 100 100 100 100 100 100 100 100 100 100 100 100 100 100 100 99 99 100 100 100 100 100 100 100 100 99 93 86
98 100 100 94 96 100 100 100 100 100 100 100 100 100 100 100 100 100 100 100 100 100 100 100 100 100 100 100 100 100 100 100 100 100 100 100 100 100 100 100 100 100 100 95
96 95 100 99 72 99 100 100 100 100 100 100 100 100 100 100 100 100 100 100 100 100 100 100 100 100 100 100 100 100 100 100 100 100 100 100 100 100 100 100 100 100 100 98
66 100 100 100 100 100 100 100 96 100 100 100 100 100 100 100 100 100 100 100 100 100 100 100 100 100 100 100 100 100 100 100 100 100 100 100 100 100 100 100 100 100 100 98
9 100 100 100 100 99 89 100 99 100 100 100 96 100 100 100 100 100 100 100 100 100 100 100 100 100 100 100 100 100 100 100 100 100 100 100 100 100 100 100 100 100 100 100
21 95 85 100 100 100 100 100 100 100 100 100 94 90 98 100 100 100 100 100 100 100 100 100 100 100 100 100 100 100 100 100 100 100 100 100 100 100 100 100 100 100 100 100
6 25 8 66 100 100 91 97 100 100 84 64 100 97 100 99 100 100 100 100 100 100 100 100 100 100 100 100 100 100 100 100 100 100 100 100 100 100 100 100 100 100 100 100

GFSNW_prec_cloud_024.txt.gz
Cloud_Cover
0 0 0 0 0 0 0 0 0 0 0 10 5 5 5 2 52 100 67 40 92 95 100 2 0 0 0 0 0 0 0 0 0 0 0 0 0 0 0 0 0 0 0 0
0 0 0 0 2 1 1 4 3 3 2 11 23 77 61 63 98 46 78 54 90 93 100 95 88 96 0 0 0 0 0 0 0 0 0 0 0 0 0 16 4 0 0 0
0 0 0 2 4 78 57 6 5 4 70 70 100 93 90 82 100 87 96 90 26 40 35 100 100 88 0 0 0 0 0 0 0 0 0 0 0 0 0 0 5 0 2 0
0 0 2 5 8 100 97 77 75 72 13 30 83 100 95 100 100 100 99 87 100 100 33 100 100 100 61 0 0 0 0 0 0 0 0 0 0 0 0 0 45 4 3 0
0 0 3 26 70 86 100 100 66 88 28 99 99 100 100 100 100 100 88 100 100 100 100 94 100 97 95 100 4 0 0 0 0 0 0 0 0 0 0 1 100 24 46 0
0 17 4 5 100 100 100 100 100 97 44 72 88 99 93 96 100 78 100 99 99 100 100 100 95 57 100 22 4 0 0 0 0 0 0 0 0 0 0 2 96 31 43 6
4 5 1 92 93 100 100 100 100 100 85 100 100 96 100 100 100 100 79 99 100 100 100 99 100 28 20 100 80 23 1 2 0 0 0 0 0 0 0 0 86 60 67 5
0 0 39 100 100 100 100 100 100 100 100 100 88 100 100 100 94 84 90 90 92 60 100 88 100 62 12 5 100 98 30 1 0 0 0 0 0 0 0 0 98 100 100 91
0 5 100 100 100 100 100 100 100 100 100 100 100 100 100 99 100 82 99 92 81 78 76 94 87 100 100 41 32 84 100 63 2 4 0 0 0 0 0 0 68 100 100 100
0 63 100 100 100 100 100 100 100 100 100 97 90 100 100 91 91 100 100 99 91 82 100 100 100 100 59 75 84 62 23 98 41 5 5 0 0 0 0 0 7 16 100 52
6 90 100 100 100 100 100 100 100 100 100 100 99 100 100 91 100 100 99 52 74 79 97 95 68 41 100 61 66 100 92 40 10 5 5 4 0 0 0 1 45 1 100 100
67 100 100 100 100 100 100 100 100 100 100 94 56 100 100 100 100 100 100 83 99 74 84 57 28 93 80 56 99 67 14 84 100 63 0 0 0 0 0 0 0 0 28 100
100 100 100 100 100 100 100 100 100 100 100 100 100 100 100 100 100 100 100 100 100 100 94 100 74 74 60 38 30 55 92 96 92 39 4 23 10 0 0 0 0 0 1 66
100 100 100 100 100 100 100 100 100 100 100 100 100 100 100 100 100 100 100 100 100 100 100 100 66 100 89 60 78 94 98 99 51 64 55 10 5 0 0 0 1 0 0 2
100 100 100 100 100 100 100 100 100 100 100 100 100 100 100 100 100 100 100 100 100 100 100 100 100 100 89 26 64 8 17 10 70 5 32 31 10 4 0 3 0 0 0 0
100 100 100 100 100 100 100 100 100 100 100 100 100 100 100 100 100 100 100 100 100 100 100 100 100 100 100 100 69 5 9 5 5 68 90 95 55 54 0 0 0 0 0 0
100 100 96 100 97 100 100 100 100 100 100 100 100 100 100 100 100 100 100 100 100 100 100 100 100 100 100 100 76 100 98 92 100 100 100 72 27 9 0 0 0 0 0 15
100 100 100 100 93 71 100 100 100 100 100 100 100 100 100 100 100 100 100 100 100 100 100 100 100 100 100 100 100 100 100 100 84 14 56 55 95 92 34 37 42 50 35 100
45 99 57 100 100 100 100 100 100 100 100 100 100 100 100 100 100 100 100 100 100 100 100 100 100 100 100 100 100 100 100 100 100 100 100 100 100 42 32 68 88 16 100 100
0 50 99 95 87 99 100 100 100 100 100 100 100 100 100 100 100 100 100 100 100 100 100 100 100 100 100 100 100 100 100 100 100 100 100 100 100 90 57 56 68 100 100 100
10 62 93 18 75 100 100 100 100 100 100 100 100 100 100 100 100 100 100 100 100 100 100 100 100 100 100 100 100 100 100 71 100 100 100 37 44 15 82 100 100 100 100 100
32 61 100 38 93 100 100 100 97 96 100 100 100 100 100 100 100 100 100 100 100 100 100 100 100 100 100 100 100 100 100 100 100 100 100 100 100 100 100 100 100 100 97 100
10 61 100 100 100 100 100 100 100 100 97 88 100 100 100 100 100 100 100 100 100 100 100 100 100 100 100 100 100 100 100 100 100 100 100 100 100 100 100 100 100 100 100 100
6 47 100 100 98 100 100 100 100 100 82 71 98 100 100 100 100 100 100 100 99 100 100 100 100 100 100 100 100 100 100 100 100 100 100 100 100 100 100 100 100 100 100 100
38 83 100 100 98 100 100 88 55 21 72 91 70 97 90 77 98 100 100 100 100 100 100 100 100 100 100 100 100 100 100 100 100 100 100 100 100 100 100 100 100 100 100 100
5 50 51 100 100 100 92 99 90 83 68 60 29 21 42 16 95 100 100 100 100 100 100 100 100 100 100 100 100 100 100 100 100 100 100 100 100 100 100 100 100 100 100 100
31 51 5 5 7 27 100 94 7 84 84 71 90 45 98 14 89 100 100 100 100 100 100 100 85 100 100 100 100 100 100 100 100 100 100 100 100 100 100 100 100 100 100 100

GFSNW_prec_cloud_027.txt.gz
Cloud_Cover
0 0 0 0 0 1 93 97 5 5 2 68 100 100 33 11 15 74 99 48 50 100 100 97 100 99 59 0 0 0 0 0 0 0 0 0 0 0 0 0 0 0 0 0
0 0 0 0 1 4 63 95 9 40 5 94 100 99 100 100 100 99 86 100 86 99 100 100 100 100 33 0 0 0 34 4 2 1 0 0 0 0 0 0 0 0 0 0
0 0 0 5 5 87 17 36 83 100 76 100 100 78 97 100 100 100 100 34 47 13 100 100 100 100 100 59 0 0 0 0 0 0 1 0 0 0 0 0 0 0 0 0
0 0 2 34 46 76 95 94 100 100 100 99 88 100 100 100 100 100 100 61 57 86 61 100 100 100 99 95 0 0 0 0 0 0 100 20 0 0 0 0 0 3 5 0
0 0 5 5 65 41 97 100 100 100 100 100 100 100 100 100 100 100 100 98 100 100 66 71 100 100 100 100 96 0 0 0 0 0 76 14 0 0 0 0 0 5 5 4
0 0 6 0 40 100 100 100 100 100 100 100 100 100 100 100 86 51 100 100 100 100 100 100 95 100 97 99 91 70 5 15 72 10 7 61 0 0 0 0 0 13 15 25
0 0 2 5 100 100 100 100 100 100 100 100 100 100 100 97 100 95 34 100 100 100 95 34 5 8 32 98 73 82 48 51 96 79 27 61 0 0 0 0 0 2 40 100
0 0 0 84 97 100 100 100 100 100 100 100 91 100 100 100 99 99 100 100 100 99 100 62 100 36 5 73 100 93 83 82 84 50 48 17 0 0 6 0 0 0 6 80
0 0 4 96 100 100 100 100 100 100 100 100 100 100 100 100 97 74 100 100 100 100 100 100 62 100 29 3 97 100 98 58 87 86 98 100 96 93 1 2 0 0 5 93
4 40 100 100 97 100 100 100 100 100 100 100 99 100 100 99 91 90 98 100 100 100 100 100 100 100 92 96 76 100 100 96 89 98 100 99 100 87 56 8 36 34 2 4
94 100 100 100 98 100 100 100 100 100 100 100 100 100 100 100 100 99 98 68 100 100 100 100 100 99 100 93 100 100 95 100 100 95 100 90 100 100 100 66 7 12 47 90
98 100 100 100 100 100 100 100 100 100 100 100 100 100 100 100 100 100 100 66 94 100 100 71 98 93 92 96 100 100 77 100 100 100 98 96 100 92 81 33 82 100 94 47
100 100 100 100 100 100 100 100 100 100 100 100 100 100 100 100 100 100 100 100 100 79 65 100 96 91 100 85 100 100 54 61 99 100 51 94 5 50 4 4 5 2 0 6
100 100 100 99 100 100 100 100 100 100 100 100 100 100 100 100 100 100 100 100 100 100 100 94 84 100 25 88 99 100 100 100 42 5 86 18 5 5 5 0 0 0 0 3
100 100 98 100 100 100 100 100 100 100 100 100 100 100 100 100 100 100 100 100 100 100 100 100 100 100 75 48 80 34 100 100 100 97 80 19 2 0 0 0 0 0 0 1
100 73 100 100 99 100 100 100 100 100 100 100 100 100 100 100 100 100 100 100 100 100 100 100 100 100 100 67 12 25 95 100 100 62 16 100 100 96 39 1 5 0 0 0
99 87 79 62 100 91 100 98 100 100 100 100 100 100 100 100 100 100 100 100 100 100 100 100 100 100 100 100 98 94 100 71 90 97 86 55 50 33 100 93 87 3 0 0
98 99 62 96 100 87 100 100 100 100 100 100 100 100 100 100 100 100 100 100 100 100 100 100 100 100 100 100 100 100 100 100 89 74 34 50 66 31 8 1 38 34 15 5
29 87 100 64 100 100 99 100 100 100 100 100 100 100 100 100 100 100 100 100 100 100 100 100 100 100 100 100 100 100 100 100 100 70 59 80 57 95 16 6 34 8 4 40
100 97 99 100 94 96 100 100 100 100 100 100 100 100 100 100 100 100 100 100 100 100 100 100 100 100 100 100 100 100 68 99 100 100 88 54 92 91 51 24 14 4 95 10
100 100 100 94 98 100 93 100 100 100 100 100 100 100 100 100 100 100 100 100 100 100 100 100 100 100 100 100 100 100 100 100 100 100 100 100 100 100 46 75 77 94 27 84
100 97 100 86 100 58 100 100 96 100 100 100 100 100 100 100 100 100 100 100 100 100 100 100 100 100 100 100 100 100 100 100 100 100 100 100 100 99 100 100 99 100 100 100
100 100 100 100 40 99 100 100 99 96 98 100 91 100 100 100 100 100 100 100 100 100 100 100 100 100 100 100 100 100 100 100 100 100 100 100 100 100 100 100 100 100 100 100
26 42 100 100 100 65 82 100 100 100 71 100 98 100 100 100 100 98 100 100 100 100 100 100 100 100 100 100 100 100 100 100 100 100 100 100 100 100 100 100 100 100 100 100
7 5 66 100 100 100 94 73 75 62 45 100 98 82 97 89 90 78 99 100 100 100 100 100 100 100 100 100 100 100 100 100 100 100 100 100 100 100 100 100 100 100 100 100
4 9 5 10 6 9 19 52 100 97 98 100 85 99 56 72 16 98 89 99 100 100 100 100 100 100 100 100 100 100 100 100 100 100 100 100 100 100 100 100 100 100 100 100
7 5 5 5 2 4 5 4 11 12 6 60 60 68 78 100 80 78 72 100 100 98 9 19 98 100 94 100 100 100 100 100 100 100 100 100 100 100 100 100 100 100 100 100

GFSNW_prec_cloud_033.txt.gz
Cloud_Cover
16 0 0 0 0 0 0 0 4 2 5 57 29 5 4 6 5 0 2 42 100 100 100 100 100 100 100 100 100 5 5 4 0 0 0 0 0 0 0 0 0 0 0 0
5 5 5 0 0 1 28 13 42 97 5 94 11 5 37 32 3 48 3 81 12 93 100 100 100 100 100 100 100 54 77 3 1 0 2 16 1 0 0 0 0 0 0 0
5 5 5 0 0 0 2 38 24 89 15 100 79 9 36 17 4 2 18 1 18 15 100 100 100 100 100 100 100 100 62 0 0 0 0 0 2 2 0 0 0 0 0 0
18 5 3 0 0 0 0 100 98 98 14 100 100 98 61 83 22 97 92 63 42 42 100 100 100 100 100 100 100 100 58 0 0 0 0 2 77 44 1 0 0 0 0 0
100 22 2 0 0 0 0 78 98 100 100 100 95 100 42 100 100 11 2 95 24 6 100 100 100 100 100 100 100 100 48 5 0 0 1 100 67 97 20 0 0 5 0 0
100 1 0 0 56 26 84 11 100 100 100 99 99 100 100 100 100 100 51 98 34 38 98 100 100 100 100 100 100 100 88 95 1 0 85 100 83 28 67 2 0 0 3 0
40 4 22 99 100 100 85 100 100 100 100 100 100 100 100 100 100 100 30 49 78 31 60 100 100 100 100 100 100 100 81 83 4 22 100 49 1 97 82 100 0 0 0 12
32 97 100 100 100 100 100 50 100 100 100 100 100 100 100 100 100 100 10 65 75 19 3 100 100 100 100 100 100 100 96 49 11 100 100 2 74 100 100 100 100 6 63 99
100 100 100 100 100 100 100 100 100 100 100 100 100 100 100 100 100 100 80 12 33 40 62 96 100 100 100 100 100 100 100 62 46 94 100 83 100 100 86 100 100 86 100 100
100 100 100 100 100 100 100 100 100 100 100 100 100 100 100 100 100 100 100 30 99 100 73 52 100 100 100 100 100 100 100 97 93 98 100 86 100 100 100 100 99 83 100 100
100 100 100 100 100 100 100 100 100 100 100 100 100 100 100 100 100 100 100 11 86 100 98 100 100 100 100 100 100 100 100 100 79 100 98 100 100 100 100 100 100 95 89 100
100 99 100 100 100 100 100 100 100 100 100 100 100 100 100 100 100 100 100 80 62 95 59 51 100 100 100 100 100 100 100 100 100 100 100 96 100 100 100 100 100 98 84 19
100 100 100 100 100 100 100 100 100 100 100 100 100 100 100 100 100 100 100 100 98 39 8 96 100 100 99 100 100 100 100 81 100 100 100 96 100 100 96 96 100 100 20 2
100 100 100 100 100 100 100 100 100 100 100 100 100 100 100 100 100 100 90 71 100 100 61 38 89 51 48 71 98 100 95 97 100 100 100 27 100 100 100 97 100 100 33 2
100 100 100 100 98 84 100 100 100 100 96 100 100 100 100 100 100 100 93 87 91 99 100 94 32 25 20 5 2 98 56 45 5 15 14 15 42 100 100 100 55 99 30 26
100 100 100 100 100 100 100 100 100 100 85 100 100 100 73 100 100 100 100 100 100 100 100 92 94 100 48 65 6 34 75 24 0 19 3 0 0 0 95 98 100 5 11 48
26 94 100 100 100 100 100 100 77 100 100 98 93 81 94 100 100 100 100 100 100 100 100 100 100 100 100 100 98 100 100 100 90 1 26 8 96 2 2 3 0 5 5 14
6 60 100 100 100 100 90 100 100 12 98 99 75 99 100 100 100 100 100 100 100 100 100 100 100 100 100 100 100 100 100 100 34 18 52 16 89 85 6 54 60 10 5 5
100 70 100 100 100 100 99 100 100 100 100 97 100 100 88 100 100 100 100 100 100 100 100 100 100 100 100 100 100 100 100 100 100 100 100 100 61 0 1 4 6 47 51 15
100 67 100 100 100 100 100 100 100 100 100 100 100 100 100 100 100 100 100 100 100 100 100 100 100 100 100 100 100 100 100 100 100 100 100 98 74 0 0 0 0 0 0 1
99 100 95 100 92 91 100 96 100 100 100 97 100 100 100 100 95 100 100 100 100 100 100 100 100 100 100 100 100 100 100 100 100 100 100 100 100 39 0 0 0 0 0 20
11 100 100 99 74 24 33 5 30 82 69 100 100 100 100 21 6 90 100 100 100 100 93 100 100 100 100 100 100 100 100 100 100 100 100 100 100 100 27 6 18 95 100 95
14 100 100 100 100 97 11 98 85 68 68 97 83 67 78 13 12 32 66 64 96 82 62 100 100 100 100 100 100 100 100 100 100 100 100 100 100 100 100 100 100 100 100 100
3 8 73 96 100 100 95 62 5 7 38 96 83 98 46 100 24 7 28 74 12 38 100 91 100 100 100 100 100 100 100 100 100 100 100 100 100 100 100 100 100 100 100 100
3 6 75 17 21 55 5 5 5 1 13 80 33 44 40 58 5 5 16 28 16 51 97 79 79 100 100 100 100 100 100 100 100 100 100 100 100 100 100 100 100 100 100 100
22 54 15 1 1 5 5 4 0 2 2 72 58 3 5 54 91 16 30 77 92 94 22 25 21 27 32 97 100 100 100 100 100 100 100 100 100 100 100 100 100 100 100 100
93 99 49 1 0 1 5 4 0 4 4 0 2 1 5 49 5 10 28 82 60 100 23 80 87 34 5 17 29 56 93 100 100 100 100 100 100 100 100 100 100 100 100 100